Regional Weather Roundup
Issued by NWS Grand Forks, ND

Home | Current Version | Previous Version | Graphics & Text | Print | Product List | Glossary On
Versions: 1 2 3 4 5 6 7 8 9 10 11 12 13 14 15 16 17 18 19 20 21 22 23 24 25 26 27 28 29 30 31 32 33 34 35 36 37 38 39 40 41 42 43 44 45 46 47 48 49 50
000
ASUS43 KFGF 271110
RWRFGF
PRAIRIE TO PINES  WEATHER ROUNDUP
NATIONAL WEATHER SERVICE EASTERN NORTH DAKOTA/GRAND FORKS ND
600 AM CDT TUE SEP 27 2016

 **SATELLITE DATA USED TO AUGMENT SKY COVER AT AUTOMATED STATIONS**
 *****  WEATHER ACROSS EASTERN NORTH DAKOTA  *****

CITY           SKY/WX    TMP DP  RH WIND       PRES   REMARKS
GRAND FORKS    CLEAR     40  36  86 W9        29.90F
GRAND FRKS AFB CLEAR     45  38  75 NW10      29.91S
DEVILS LAKE    CLEAR     39  35  86 NW7       29.97S
FARGO          CLEAR     40  35  83 W8        29.92F
WAHPETON ARPT  SUNNY     37  34  87 W9        29.94F
$$

 ***** WEATHER ACROSS CENTRAL AND WESTERN NORTH DAKOTA  *****

CITY           SKY/WX    TMP DP  RH WIND       PRES   REMARKS
BISMARCK       CLEAR     41  37  86 CALM      30.03S
MINOT          CLEAR     41  36  82 SW5       30.01S
JAMESTOWN      CLEAR     43  38  82 W10       29.98S
MINOT AFB      CLEAR     38  34  87 W6        30.00S
GARRISON         N/A     37  35  92 N3        30.01F
WILLISTON      CLEAR     38  36  92 CALM      30.02S
DICKINSON      CLEAR     41  37  86 W5        30.02S
HETTINGER      CLEAR     38  36  92 CALM      30.06F
$$

 *****  OTHER AIRPORT OBSERVATIONS IN OUR AREA  *****

CITY           SKY/WX    TMP DP  RH WIND       PRES   REMARKS
WALHALLA       FAIR      43  39  87 NW8       29.93R
GRAFTON AIRPOR FAIR      45  41  87 NW12      29.92S
VALLEY CITY AR FAIR      39  39 100 NW12      29.98F
CANDO          FAIR      37  36  93 NW8       29.99S
CAVALIER APRT  FAIR      45  39  81 NW9       29.91S
GWINNER        FAIR      43  37  81 W10       29.97F
SHEYENNE NWR     N/A     39  34  83 NW7       29.95S
ROLLA          FAIR      37  32  81 NW9       29.99S
 ***** THE ABOVE OBSERVATIONS ARE NON NWS ARE NOT QUALITY
       CONTROLLED AND MAY MIS-REPORT RAIN FOR SNOW...
$$

  *****  WEATHER ACROSS NORTHERN MINNESOTA  *****

CITY           SKY/WX    TMP DP  RH WIND       PRES   REMARKS
FLAG ISLAND    MOCLDY    50  43  76 NW21      29.76S
WARROAD        CLOUDY    50  45  81 NW13G20   29.81R
ROSEAU         CLOUDY    46  43  87 W9        29.82S
HALLOCK        CLEAR     45  43  93 NW9       29.89R
THF RVR FALLS  CLEAR     44  40  85 NW13      29.87F
BAUDETTE       CLOUDY    50  42  74 NW23G33   29.75F
WASKISH        CLOUDY    48  45  87 NW15      29.78S
CROOKSTON      CLEAR     43  39  87 NW10      29.90S
GREENBUSH NDAW   N/A     43  41  93 W9          N/A
$$
  *****  WEATHER ACROSS CENTRAL AND WEST MINNESOTA  *****

CITY           SKY/WX    TMP DP  RH WIND       PRES   REMARKS
FOSSTON        CLEAR     43  39  87 W10       29.87S
BEMIDJI        CLOUDY    45  41  86 W14       29.81S
PARK RAPIDS    PTCLDY    45  39  79 NW14      29.84S
ELBOW LAKE     FAIR      38  36  92 NW7       29.92F
WADENA         NOT AVBL
DETROIT LAKES  CLEAR     45  41  87 NW12      29.90R
MOORHEAD       CLEAR     41  36  81 W8        29.92F
FERGUS FALLS   CLEAR     36  36 100 W3        29.95S
MORRIS MN      CLEAR     39  36  87 W8        29.93S
STAPLES        CLEAR     45  39  81 W12       29.85S
$$
  *****  WEATHER ELSEWHERE ACROSS MINNESOTA  *****

CITY           SKY/WX    TMP DP  RH WIND       PRES   REMARKS
DULUTH         DRIZZLE   49  45  86 NW14G25   29.68R FOG
INTRNTL FALLS  CLOUDY    47  45  93 NW12      29.70S
ELY            CLOUDY    46  45  93 NW8G16    29.62S
CLOQUET        CLOUDY    50  43  76 W13G20    29.70S
WHEATON        NOT AVBL
BRAINERD       CLOUDY    48  42  80 NW13      29.82S
HIBBING        CLOUDY    46  44  93 NW17      29.69S
ALEXANDRIA     CLEAR     43  38  82 W12       29.90F
SAINT CLOUD    CLEAR     46  40  79 W10       29.85R
MINNEAPOLIS    CLEAR     50  38  63 W13       29.83F
$$

  *****  WEATHER ACROSS SOUTH DAKOTA  *****

CITY           SKY/WX    TMP DP  RH WIND       PRES   REMARKS
SIOUX FALLS    CLEAR     46  37  71 W9        30.01F
BROOKINGS      CLEAR     43  36  76 CALM      29.99S
WATERTOWN      CLEAR     46  38  73 W7        29.98F
HURON          CLEAR     44  36  73 W7        30.01F
SISSETON         N/A     44  35  70 NW7       29.95S
ABERDEEN       CLEAR     42  36  79 W6        30.00S
MITCHELL       CLEAR     48  38  68 W6        30.03F
PIERRE         CLEAR     46  38  73 W6        30.03F
MOBRIDGE       CLEAR     40  36  86 N3        30.01S
RAPID CITY     CLEAR     40  36  86 NW3       30.10F
$$

  *****  SOME WEATHER IN NEARBY STATES *****

CITY           SKY/WX    TMP DP  RH WIND       PRES   REMARKS
GLASGOW MT     CLEAR     46  42  86 E8        29.97S
GREAT FALLS MT CLEAR     59  40  49 S14       30.04S
CHEYENNE WY    CLOUDY    43  36  76 W5        30.27F
SCOTTSBLUFF NE CLEAR     43  39  86 CALM      30.18F
OMAHA NE       PTCLDY    50  44  80 NW5       30.03F
DES MOINES IA  CLEAR     51  44  77 W6        29.98F
DAVENPORT IA   CLEAR     48  42  80 W8        29.92F
CHICAGO IL     CLEAR     52  40  63 W14       29.84S
EAU CLAIRE WI  CLOUDY    51  41  68 W13       29.75S
LA CROSSE WI   CLEAR     53  39  59 W13       29.80S
$$

  *****  SOME NATIONAL WEATHER *****

CITY           SKY/WX    TMP DP  RH WIND       PRES   REMARKS
LA GUARDIA NY  LGT RAIN  67  62  84 W12       29.90R
RALEIGH NC     CLOUDY    67  66  97 CALM      29.98R
ATLANTA GA     MOCLDY    71  67  87 S3        29.97S
NEW ORLEANS LA MOCLDY    79  72  79 N10       29.94R
OKLAHOMA CITY  PTCLDY    51  49  92 CALM      30.14F
ALBUQUERQUE NM CLOUDY    54  34  46 N8        30.31F
SALT LAKE CITY PTCLDY    54  47  77 SE6       30.23S
LOS ANGELES CA PTCLDY    73  44  35 E5        29.84R
BOISE ID       CLEAR     59  42  53 SE7       30.11R
SEATTLE WA     CLOUDY    64  55  72 NE8       30.14R
$$

*** WEATHER ACROSS MANITOBA...SASKATCHEWAN AND ONTARIO ***
                ***ONTARIO***

CITY           SKY/WX    TMP DP  RH WIND       PRES   REMARKS
GERALDTON      MOCLDY    48  48 100 NE5       29.40R FOG
THUNDER BAY    CLOUDY    48  46  93 W9        29.47R
SIOUX LOOKOUT  DRIZZLE   45  43  93 N15G26    29.60R
TORONTO        PTCLDY    50  43  76 S5        29.79F
BIG TROUT LK   LGT RAIN  45  45 100 N8        29.61  FOG
PICKLE LAKE    LGT RAIN  43  43 100 NW8       29.55  FOG
DRYDEN         LGT RAIN  46  45  93 N9G22     29.65R
KENORA         LGT RAIN  46  43  87 N13G21    29.74R
$$
                *** MANITOBA***

CITY           SKY/WX    TMP DP  RH WIND       PRES   REMARKS
BRANDON        CLEAR     34  30  86 VRB2      29.98S
DAUPHIN        CLEAR     34  32  93 W7        29.98S
ISLAND LAKE    LGT RAIN  43  43 100 N15G29    29.81S FOG
PILOT MOUND      N/A     36  32  87 W5          N/A
THE PAS        CLEAR     37  34  87 CALM      30.00R
THOMPSON       CLOUDY    41  36  81 N10       29.97S
WINNIPEG       MOCLDY    46  43  87 NW14      29.88S
LYNN LAKE      CLEAR     32  32 100 NE2       30.01R
CHURCHILL      CLOUDY    43  41  93 N21G29    29.96R
$$
                ***SASKATCHEWAN***

CITY           SKY/WX    TMP DP  RH WIND       PRES   REMARKS
ESTEVAN        CLEAR     39  37  93 S2        30.01S
KINDERSLEY     CLEAR     46  43  87 S8        29.83S
LLOYDMINSTER   CLEAR     46  41  81 S9        29.78F
PRINCE ALBERT  CLEAR     36  34  93 E6        29.92S
REGINA         CLEAR     41  36  81 E10       29.97F
YORKTON        CLEAR     37  36  93 CALM      29.99S
N. BATTLEFORD  CLEAR     48  37  66 E14       29.85F
LA RONGE       CLEAR     48  39  71 SE9       29.91F
SASKATOON      CLEAR     45  39  81 SE7       29.90F
SWIFT CURRENT  CLEAR     48  43  81 S13       29.89F
$$
NOTE: THESE ARE AUTOMATED STATIONS WITH LIMITED QUALITY CONTROL
      "FAIR" INDICATES FEW OR NO CLOUDS BELOW 12,000 FEET WITH NO
      SIGNIFICANT WEATHER AND/OR OBSTRUCTIONS TO VISIBILITY.
      SKY/WX - SKY CONDITION AND SIGNIFICANT WEATHER.
      TMP - AIR TEMPERATURE.    DP   - DEWPOINT TEMPERATURE.
      RH  - RELATIVE HUMIDITY.  PRES - PRESSURE.
      HX  - HEAT INDEX.         WCI  - WIND CHILL INDEX.
$



USA.gov is the U.S. government's official web portal to all federal, state and local government web resources and services.